Location: Kazanice
(53.5528°N, 19.7258°E)
Time: 04:44:37
(UTC+01:00)

ISS - Visible Passes

Search period start: 24 November 2017 00:00
Search period end: 04 December 2017 00:00
Orbit: 402 x 407 km, 51.6° (Epoch: 24 November)

Date Brightness Start Highest point End Pass type
(mag) Time Alt. Az. Time Alt. Az. Time Alt. Az.
28 Nov -0.8 18:17:47 10° SSW 18:17:50 10° SSW 18:17:50 10° SSW visible
29 Nov -1.5 17:26:27 10° S 17:27:45 13° SSE 17:27:45 13° SSE visible
30 Nov -1.7 18:08:46 10° SW 18:10:15 21° SSW 18:10:15 21° SSW visible
01 Dec -2.2 17:16:52 10° SSW 17:19:28 22° SSE 17:20:01 21° SE visible
01 Dec -0.5 18:52:19 10° WSW 18:52:40 12° WSW 18:52:40 12° WSW visible
02 Dec -1.6 16:25:17 10° S 16:27:17 15° SE 16:29:17 10° ESE visible
02 Dec -2.5 18:00:03 10° SW 18:02:23 35° SSW 18:02:23 35° SSW visible
03 Dec -2.7 17:07:52 10° SW 17:10:53 33° SSE 17:12:04 25° ESE visible
03 Dec -0.9 18:43:50 10° WSW 18:44:42 17° WSW 18:44:42 17° WSW visible
